FW4396 Weather Reports


Display with metric or nautical units.
time (UTC)temp
F
wind
direction
speed
MPH
gust
MPH
rain 1hr
in
rain 24hr
in
rain mn
in
humidity
%
barometer
mb
20260505034553 61 178 0.0 1.0 0.00 0.00 0.00 62 1009.8
20260505033052 62 178 0.0 2.0 0.00 0.00 0.00 60 1009.7
20260505031558 62 178 0.0 4.0 0.00 0.00 0.00 58 1009.7
20260505030058 62 170 0.0 4.0 0.00 0.00 0.00 58 1009.5
20260505024553 62 176 1.0 5.0 0.00 0.00 0.00 58 1009.6
20260505023051 61 131 0.0 3.0 0.00 0.00 0.00 59 1009.8
20260505021550 62 161 0.0 2.0 0.00 0.00 0.00 58 1009.8
20260505020051 63 159 0.0 2.0 0.00 0.00 0.00 57 1009.7
20260505014602 64 159 1.0 2.0 0.00 0.00 0.00 56 1009.8
20260505013047 65 185 0.0 3.0 0.00 0.00 0.00 54 1010.0
20260505011551 65 186 0.0 5.0 0.00 0.00 0.00 52 1009.6
20260505010046 65 151 1.0 6.0 0.00 0.00 0.00 52 1009.5
20260505004545 66 167 1.0 7.0 0.00 0.00 0.00 51 1009.1
20260505003044 67 123 1.0 7.0 0.00 0.00 0.00 49 1009.1
20260505001546 68 145 0.0 4.0 0.00 0.00 0.00 48 1009.1
20260505000047 69 116 2.0 7.0 0.00 0.00 0.00 47 1008.8
20260504234542 70 120 2.0 6.0 0.00 0.00 0.00 46 1008.9
20260504233042 71 183 2.0 7.0 0.00 0.00 0.00 44 1008.7
20260504231541 73 177 5.0 11.0 0.00 0.00 0.00 42 1008.6
20260504230046 74 211 5.0 12.0 0.00 0.00 0.00 39 1008.7
20260504224545 74 205 4.0 9.0 0.00 0.00 0.00 39 1008.8
20260504223037 75 220 4.0 10.0 0.00 0.00 0.00 39 1008.8
20260504221538 75 116 5.0 11.0 0.00 0.00 0.00 38 1008.9
20260504220035 75 227 3.0 10.0 0.00 0.00 0.00 38 1008.8
20260504214534 76 226 6.0 12.0 0.00 0.00 0.00 38 1008.9
20260504213034 76 184 3.0 12.0 0.00 0.00 0.00 38 1008.9
20260504211534 76 286 6.0 14.0 0.00 0.00 0.00 37 1008.8
20260504210039 76 293 6.0 12.0 0.00 0.00 0.00 37 1008.8
20260504204546 76 302 5.0 13.0 0.00 0.00 0.00 37 1008.9
20260504203030 76 233 5.0 16.0 0.00 0.00 0.00 36 1009.1
20260504201525 75 215 7.0 12.0 0.00 0.00 0.00 37 1009.3
20260504200023 76 274 4.0 11.0 0.00 0.00 0.00 37 1009.6
20260504194521 75 184 5.0 15.0 0.00 0.00 0.00 38 1009.8
20260504193019 75 196 4.0 12.0 0.00 0.00 0.00 36 1010.1
20260504191517 75 294 4.0 10.0 0.00 0.00 0.00 37 1010.5
20260504190014 75 217 4.0 11.0 0.00 0.00 0.00 37 1010.6
20260504184512 74 290 3.0 13.0 0.00 0.00 0.00 38 1010.8
20260504183011 74 283 6.0 13.0 0.00 0.00 0.00 37 1010.9
20260504181509 74 202 6.0 14.0 0.00 0.00 0.00 38 1011.0
20260504180007 73 197 3.0 9.0 0.00 0.00 0.00 37 1011.1
20260504174507 73 151 3.0 11.0 0.00 0.00 0.00 38 1011.3
20260504173003 73 203 6.0 13.0 0.00 0.00 0.00 39 1011.5
20260504171502 73 225 5.0 13.0 0.00 0.00 0.00 40 1011.8
20260504081509 38 284 0.0 1.0 0.00 0.00 0.00 79 1015.0
20260504044543 43 284 0.0 0.0 0.00 0.00 0.00 71 1014.7
20260504043043 43 284 0.0 0.0 0.00 0.00 0.00 70 1014.8
20260504041542 44 284 0.0 0.0 0.00 0.00 0.00 69 1014.8
20260504040040 44 284 0.0 0.0 0.00 0.00 0.00 68 1014.7